Wind_Speed
65 65 66 66 64 62 60 58 56 54 51 51 50 49 48 47 47 45 44 43 42 41 39 38 37 34 31 30 30 29 30 29 28 32 36 37 34 32 30 26 25 24 23 24 23 20 18 17 18 17 17 17 17 18 18 17 17 18 21 21 21 21 22 22 22 22 22 23 25 26 27 28 29 28 27 26 25 25 25 25 25 26 27 28 28 27
67 68 68 66 62 59 58 57 56 54 53 52 52 51 50 49 48 47 46 45 43 42 40 39 41 38 32 30 31 31 30 26 25 29 33 35 36 34 31 27 24 24 25 25 22 20 18 18 18 17 16 16 16 18 19 19 18 19 20 22 22 22 21 22 23 24 23 24 26 27 28 29 30 30 30 28 27 27 26 27 27 27 28 29 30 30
72 72 68 64 62 60 59 58 57 56 55 54 53 53 52 51 49 49 49 48 46 44 43 42 43 40 34 31 32 32 30 26 26 29 30 32 33 31 29 27 25 24 26 27 25 23 23 22 21 20 18 18 18 19 19 19 19 19 20 22 23 24 23 23 24 25 25 26 27 28 28 29 30 31 31 31 30 29 29 29 30 30 30 31 32 32
74 73 68 65 64 64 63 61 59 58 58 57 56 55 54 52 50 50 50 50 48 46 46 45 45 42 36 33 32 31 30 29 28 29 29 29 29 27 25 25 25 25 26 29 29 28 27 27 26 24 22 22 22 21 20 20 20 19 20 21 24 25 25 25 25 25 26 27 28 28 29 30 30 30 31 32 32 32 33 33 34 33 33 33 33 33
71 68 66 65 66 65 64 63 62 61 60 59 58 56 55 53 52 51 51 50 50 49 49 48 48 45 39 35 32 31 33 31 29 29 28 27 26 25 24 23 23 24 26 28 29 30 29 29 28 26 25 24 23 23 22 22 22 22 21 22 23 25 26 27 26 26 27 28 29 29 29 30 30 31 31 32 33 35 36 36 36 36 35 34 35 35
67 67 65 63 65 67 66 65 64 62 61 60 59 56 55 53 51 51 52 53 53 53 52 50 50 46 41 38 34 32 34 32 29 29 28 26 26 25 24 23 23 23 23 24 25 27 29 28 28 27 26 25 24 23 24 26 26 25 24 24 24 25 26 27 27 28 28 29 29 30 30 30 31 31 31 32 34 36 36 37 37 37 36 36 36 37
64 67 66 65 67 67 67 66 64 62 61 61 59 55 54 53 51 52 54 55 56 56 55 54 52 47 43 39 36 34 34 32 31 30 28 26 25 25 24 23 23 22 21 22 22 24 26 26 26 25 24 24 23 23 25 27 28 27 27 27 27 27 27 27 28 29 29 29 30 30 30 31 31 31 31 33 35 36 37 37 37 37 37 37 37 38
63 63 65 68 70 69 69 67 64 64 64 62 58 55 55 54 52 53 54 56 57 58 59 57 53 49 46 41 36 35 35 33 32 30 28 27 26 26 25 23 22 22 22 22 22 23 24 25 25 24 24 24 23 25 26 27 26 27 28 29 29 29 29 29 30 30 30 30 31 31 32 32 32 32 32 34 36 37 38 39 38 38 38 38 38 39
61 63 64 65 70 72 70 67 65 64 64 63 60 57 56 56 54 53 54 57 58 60 61 58 53 51 50 44 37 36 36 35 32 30 29 27 26 26 26 23 22 22 22 22 22 23 25 26 26 25 24 24 25 26 28 27 27 28 28 28 29 30 30 31 32 32 32 32 33 33 33 32 32 33 34 36 37 37 38 39 40 40 40 40 40 40
61 64 64 66 69 69 68 68 67 65 64 64 62 58 57 57 55 54 56 58 59 61 62 59 55 54 53 50 43 38 37 35 31 30 30 26 24 24 24 24 23 22 22 22 22 22 23 24 25 24 24 23 24 26 27 28 28 28 28 28 28 28 29 31 31 32 33 34 34 35 34 34 34 35 36 37 37 38 38 39 40 41 42 42 42 42
60 61 67 71 69 65 65 67 67 65 65 65 63 59 57 57 55 53 55 57 59 63 63 61 58 58 56 53 47 41 37 34 31 30 29 25 23 23 24 25 25 22 21 22 22 22 21 21 21 22 22 22 23 24 25 26 27 28 29 29 29 29 30 30 31 32 33 35 36 36 36 36 36 37 38 37 37 38 39 39 40 41 42 43 43 43
61 64 69 69 65 64 66 68 67 66 66 65 63 60 57 57 55 52 52 54 59 65 66 62 61 62 59 54 49 43 36 33 32 29 28 27 26 25 26 27 25 22 21 22 23 22 21 20 18 19 19 20 21 22 22 23 24 25 26 27 28 28 29 29 30 31 33 34 35 36 37 37 38 39 39 38 37 37 39 39 40 42 42 42 43 43
63 66 67 64 64 67 68 69 69 68 68 66 65 62 59 60 59 57 58 59 63 67 67 65 65 65 61 53 49 46 38 33 31 29 27 27 27 26 26 27 26 25 24 23 23 23 22 21 19 19 19 19 21 21 22 22 22 23 23 24 24 24 25 27 28 29 31 32 33 35 36 37 39 40 39 39 38 38 38 40 42 43 43 43 43 43
63 65 67 66 68 70 70 72 72 70 71 70 70 68 65 66 67 67 68 68 68 68 68 68 67 65 60 54 51 50 44 37 33 31 28 26 28 29 28 28 28 28 26 24 24 24 23 23 23 22 22 22 22 22 23 23 23 24 24 25 25 25 25 26 26 27 28 29 30 32 34 36 38 39 40 40 39 39 40 41 43 44 45 45 44 44
61 65 67 66 67 68 68 69 67 66 67 68 69 70 70 72 72 72 71 71 69 68 68 69 68 64 59 54 52 52 50 44 37 34 32 30 30 31 30 30 30 30 28 27 26 26 25 25 25 25 25 25 23 22 22 23 24 25 26 26 26 26 27 28 28 28 28 27 28 29 30 32 34 37 39 40 40 41 41 42 44 45 46 46 46 46
59 62 63 61 62 64 64 63 63 65 66 66 66 68 70 72 71 69 68 68 66 65 67 68 67 63 59 56 55 54 53 51 43 36 36 35 32 33 32 31 31 32 31 30 29 29 27 26 26 26 26 25 24 23 23 24 25 26 27 28 28 28 29 30 30 30 30 30 30 30 29 29 31 33 35 37 39 40 41 43 44 46 47 48 48 48
59 60 61 60 59 61 60 60 62 64 65 65 67 69 70 69 70 69 69 69 67 67 69 68 66 64 63 61 59 57 55 54 48 39 36 37 35 34 34 33 33 33 32 32 31 31 30 29 28 27 27 26 26 26 26 26 27 28 29 30 30 30 30 31 31 32 32 33 33 33 33 33 33 34 34 35 36 38 40 42 43 45 47 49 50 50
58 59 61 60 59 60 61 60 60 61 62 63 65 66 66 67 68 68 69 70 70 71 71 69 67 65 65 64 60 58 55 54 52 43 37 36 37 36 35 36 37 36 35 34 32 32 32 31 30 30 30 30 30 29 29 29 29 30 30 31 31 32 32 32 32 33 33 34 35 36 36 37 38 38 37 37 37 38 39 40 42 44 46 49 51 52
57 57 60 62 62 62 62 63 63 63 63 65 63 61 63 66 68 68 68 69 69 71 71 69 68 67 66 64 60 57 54 53 53 48 40 36 37 38 38 40 40 39 37 36 34 33 33 32 33 33 33 34 33 33 32 32 32 32 32 33 33 33 33 33 33 33 33 33 34 36 38 39 40 40 40 40 40 40 40 40 42 43 45 48 50 52
57 54 55 60 63 64 63 64 65 65 64 65 64 64 64 64 65 66 66 66 67 68 68 69 70 69 66 63 59 57 55 55 54 49 42 38 36 37 39 40 39 39 39 39 38 36 35 35 35 35 35 35 34 34 34 34 34 34 34 35 35 35 34 34 33 33 33 33 34 36 38 39 41 42 42 43 43 43 43 43 43 44 45 47 49 51
52 51 51 54 59 64 66 65 64 64 65 65 65 67 68 67 67 66 65 65 67 68 68 70 72 71 66 63 61 59 57 57 54 48 44 41 39 37 38 38 37 37 39 40 41 40 39 38 37 36 35 35 35 35 35 36 36 36 37 37 37 37 36 35 34 33 32 33 33 35 37 39 40 42 43 44 44 45 46 46 46 46 47 47 48 50
50 51 49 52 56 60 63 64 62 63 64 64 64 65 66 68 70 70 69 68 67 67 68 70 74 74 68 64 62 59 57 56 53 47 44 45 42 39 38 37 37 38 40 41 41 41 40 39 39 38 38 38 38 38 37 37 38 38 40 40 40 39 37 35 34 33 33 33 33 34 36 38 40 41 43 44 45 46 47 48 48 48 49 49 49 50
62 62 56 53 55 56 57 60 62 63 63 62 63 64 63 66 68 69 70 67 65 65 64 66 71 72 67 63 61 59 57 56 54 49 45 46 45 41 38 37 39 41 42 43 41 40 38 38 39 40 41 41 41 40 40 40 40 41 42 42 41 40 38 37 35 34 33 33 34 35 36 38 40 41 43 44 46 47 48 49 49 50 50 50 50 51
70 70 63 57 53 52 54 57 59 61 64 65 66 65 65 67 67 66 65 63 64 66 64 66 68 66 63 61 59 60 59 58 57 53 47 46 46 44 41 39 40 42 43 43 41 39 39 39 40 41 41 42 41 41 41 42 42 43 42 42 40 38 37 36 34 34 34 34 35 36 37 38 40 41 43 44 45 47 48 49 50 51 52 52 52 52
66 69 65 59 55 53 53 55 58 61 64 66 66 65 66 66 66 65 64 64 67 67 64 67 65 59 59 60 59 61 61 60 61 57 50 47 46 46 45 43 42 43 43 42 41 41 42 42 43 43 43 43 42 42 42 43 43 44 43 42 40 37 35 34 33 33 34 34 35 36 38 39 40 41 43 44 45 46 47 49 50 51 53 53 53 53
59 66 64 56 55 58 58 57 59 60 61 62 62 63 63 63 64 64 64 67 70 67 65 68 62 54 56 58 59 61 62 62 63 59 52 46 44 45 47 46 44 42 42 42 43 44 45 46 47 46 45 44 43 43 43 44 45 45 44 42 39 37 35 34 34 34 34 35 36 37 38 39 41 42 44 45 46 47 48 49 50 52 53 54 55 55
56 60 60 53 50 52 53 57 59 59 60 61 60 59 59 60 62 64 67 70 68 65 67 69 63 59 59 58 58 62 63 63 63 59 52 46 44 46 48 47 44 42 42 43 45 47 48 48 48 47 46 44 44 44 44 45 45 44 41 40 38 36 35 35 35 35 35 36 37 38 40 41 42 44 45 46 47 49 49 50 51 52 53 53 54 54
65 61 57 51 49 49 50 53 57 60 60 60 58 57 57 59 61 65 68 67 64 66 69 67 63 65 65 61 61 63 64 63 60 56 52 47 47 50 50 49 49 49 47 45 47 50 49 48 47 46 46 46 45 45 45 45 43 41 39 37 36 35 35 35 35 35 36 37 38 39 40 42 43 44 46 47 48 48 49 49 49 50 50 51 51 51
73 68 63 56 50 49 51 53 55 58 60 59 59 57 57 57 60 62 63 61 61 65 63 57 56 61 62 59 58 59 61 61 57 53 52 51 51 53 54 54 56 56 51 47 48 49 49 48 47 46 46 46 46 46 45 43 41 39 37 36 35 35 35 35 36 36 37 38 38 40 41 42 43 44 45 46 46 47 47 47 48 48 49 49 50 50
75 71 69 67 59 52 51 54 56 56 58 60 60 58 57 56 56 57 56 55 58 60 55 49 50 55 56 53 52 53 56 59 58 54 54 54 56 57 58 60 62 59 52 48 49 49 49 48 47 47 47 47 47 46 43 40 38 37 36 35 35 36 36 36 37 37 37 38 38 38 39 40 41 42 43 44 44 45 46 46 47 48 49 50 50 51
77 70 67 69 69 64 58 54 55 56 56 58 60 59 58 57 55 54 52 51 55 57 54 50 53 55 53 50 51 52 53 55 57 56 54 55 57 59 60 63 64 58 51 50 50 50 51 50 48 48 48 48 47 44 40 38 37 36 35 35 35 36 36 37 37 36 36 36 36 36 37 37 38 39 40 40 41 42 43 44 45 46 48 48 49 50
76 74 68 66 70 72 66 58 56 54 53 55 58 59 59 59 55 52 49 48 50 51 49 49 53 53 47 45 48 48 47 49 52 54 54 53 54 55 57 61 61 56 52 52 52 52 52 51 50 50 49 47 44 41 39 37 36 35 35 35 36 36 36 36 35 35 35 35 35 36 36 37 37 38 38 39 40 41 42 43 44 45 46 47 47 48
73 74 71 69 71 72 70 65 60 58 61 62 59 56 56 56 54 50 49 48 48 49 49 51 50 45 40 42 44 44 45 47 50 53 55 53 53 54 56 57 57 55 54 54 53 52 52 51 50 50 48 45 42 40 38 36 35 36 36 36 36 36 35 34 33 33 34 34 36 37 37 38 38 38 39 40 41 42 43 45 46 46 47 47 48 48
65 63 59 60 62 66 72 73 67 68 71 65 54 52 53 52 51 52 51 49 48 48 49 50 48 43 42 43 43 43 47 48 50 54 56 56 56 57 57 56 55 54 55 54 52 52 52 51 50 49 45 43 40 38 37 36 36 37 37 36 36 35 34 33 33 33 34 34 36 36 37 38 39 40 41 42 43 45 46 47 48 48 49 49 49 50
63 57 51 48 48 53 64 70 70 73 72 61 53 53 53 49 48 50 51 49 49 48 47 48 48 45 45 45 42 42 45 46 49 53 55 58 59 59 58 56 53 53 54 54 53 53 52 51 49 47 43 40 38 36 36 36 37 37 37 36 35 34 33 33 33 33 34 34 35 36 37 38 39 41 42 43 44 46 46 47 47 48 48 48 49 50
69 64 56 51 46 46 52 59 65 69 70 67 63 60 57 54 50 48 49 48 46 45 44 45 45 44 44 43 40 41 43 45 49 52 55 58 59 58 57 55 51 52 53 54 54 53 52 50 47 44 41 38 36 36 36 37 37 37 36 35 34 34 33 33 33 34 34 35 36 37 38 39 40 42 43 44 45 46 47 48 48 48 48 48 49 50
76 75 68 60 52 47 49 53 57 61 66 70 71 65 57 52 47 46 47 44 40 41 41 39 39 40 41 41 39 42 45 45 47 51 54 56 55 55 55 53 51 52 54 55 55 52 50 47 44 40 38 37 37 37 38 38 38 37 36 34 34 34 33 33 33 34 35 36 37 38 39 41 43 44 45 46 46 47 47 48 49 49 49 49 50 51
79 81 78 72 62 53 51 52 51 55 61 66 70 66 55 50 51 54 57 52 45 43 40 36 35 36 38 39 41 43 45 46 47 47 49 53 54 53 53 52 52 55 56 56 54 51 47 44 41 39 37 37 38 39 39 39 38 36 35 34 34 34 33 34 34 35 36 37 38 40 42 43 44 45 45 46 46 46 46 46 47 48 48 49 49 49
79 85 83 79 71 61 58 56 53 52 51 55 63 63 60 61 58 57 65 60 46 37 36 32 31 31 32 36 39 42 45 47 46 44 45 49 49 48 49 52 54 57 57 56 53 48 44 42 39 37 37 38 39 40 39 39 37 35 35 35 34 34 34 34 35 36 38 39 41 42 43 44 44 44 44 45 44 44 44 43 43 44 45 46 45 45
75 84 86 83 78 69 64 61 58 54 47 49 58 65 68 66 57 55 62 51 34 31 38 35 29 27 29 34 39 42 44 43 41 41 44 45 42 41 47 53 55 56 56 55 51 46 42 40 38 37 38 40 40 40 39 38 36 36 37 35 34 34 35 36 37 39 40 41 42 43 44 45 44 43 43 43 43 42 41 41 41 42 42 42 41 40
71 78 82 82 80 74 69 65 62 58 50 48 56 65 66 60 57 61 57 39 30 36 43 38 33 31 33 38 41 42 42 40 40 43 47 46 42 42 48 54 55 56 55 53 49 46 43 40 38 38 41 40 39 39 38 37 37 38 38 36 35 36 36 38 39 40 41 42 43 45 46 46 44 41 41 41 41 41 40 40 40 40 40 40 39 38
72 74 76 77 76 74 71 66 62 60 53 48 55 66 67 62 63 65 56 45 46 51 46 42 42 39 39 42 43 41 41 42 44 46 48 49 45 44 48 53 55 55 54 51 50 49 46 43 41 41 40 39 39 39 39 39 41 41 38 37 37 37 39 40 41 40 41 42 44 45 46 45 42 40 40 40 40 39 39 39 39 39 39 38 37 36
72 74 75 75 74 73 72 70 65 59 52 48 52 64 71 71 70 68 61 55 55 54 51 52 51 46 43 44 43 43 42 43 45 45 47 50 48 45 49 54 55 54 51 51 52 51 48 45 44 43 40 39 40 41 42 43 43 41 39 39 39 40 41 42 41 41 42 44 45 46 46 43 41 40 40 39 38 38 38 38 38 38 38 38 37 36
69 74 75 75 76 75 76 76 69 56 48 48 53 61 67 68 67 65 63 58 54 52 55 58 56 52 48 46 46 47 46 46 46 44 45 50 50 48 50 53 54 53 51 51 53 51 48 47 46 43 41 42 44 44 45 46 45 42 41 41 41 42 43 42 41 42 43 45 46 46 44 41 40 40 39 39 38 37 37 38 38 39 38 38 37 37
62 69 73 75 76 78 79 78 69 56 50 52 56 58 59 59 60 61 61 59 56 53 55 59 59 56 52 51 51 51 50 50 48 45 47 50 51 51 52 53 54 54 53 54 54 51 49 47 45 44 44 45 46 48 48 47 45 43 43 43 43 43 42 41 42 43 44 46 47 46 43 40 40 40 39 39 39 38 38 38 38 38 39 38 38 38
54 60 67 73 75 77 80 80 73 61 55 54 55 57 58 58 60 61 59 57 56 53 54 59 61 56 52 54 54 52 52 52 50 48 50 52 53 54 55 55 55 54 53 53 53 52 51 48 46 45 47 47 48 50 50 48 46 44 44 45 45 44 42 42 43 44 45 46 46 44 42 40 39 39 40 40 40 39 39 38 38 38 39 39 39 39
53 54 60 68 73 75 78 82 78 65 54 51 53 57 58 57 57 58 56 55 55 56 57 60 61 58 55 55 56 54 54 53 52 52 53 53 55 57 58 58 56 53 52 53 53 53 52 50 48 48 49 49 50 51 51 49 47 46 47 47 45 44 43 44 44 44 45 46 45 43 41 40 39 39 40 40 41 40 40 39 39 39 39 39 40 40
56 55 57 63 70 74 77 81 78 67 55 50 52 55 55 53 54 55 56 56 57 59 60 61 62 61 59 58 58 57 55 54 54 55 54 53 54 56 56 57 55 53 52 53 53 54 54 53 52 51 51 52 51 51 50 49 48 48 48 47 46 45 45 45 45 45 46 46 45 44 42 40 40 40 40 40 40 41 40 40 40 40 40 40 40 41
59 61 61 62 66 73 81 82 78 70 61 54 51 51 50 50 52 54 57 59 60 62 62 62 62 61 60 62 62 60 58 56 55 56 56 54 53 53 53 52 52 52 51 50 52 55 56 56 54 53 53 53 51 50 50 49 49 49 49 48 47 48 48 47 46 46 46 46 46 45 43 41 41 40 40 41 41 41 41 41 41 41 41 41 41 41
64 65 65 64 66 72 82 86 79 69 59 49 44 45 47 50 53 55 57 60 62 62 62 62 63 62 62 63 64 63 62 57 54 56 58 55 52 50 49 48 49 50 49 50 52 54 56 55 55 54 54 53 51 50 50 49 49 50 50 49 50 50 50 48 47 47 47 47 47 46 44 43 43 42 42 42 42 42 42 42 42 42 42 42 42 42
69 68 68 69 70 70 76 82 80 70 57 45 42 45 47 48 52 54 54 55 57 59 60 61 63 63 63 64 64 65 64 58 53 56 59 56 53 50 47 46 47 48 50 53 55 56 55 55 55 55 54 52 51 51 50 50 50 50 50 51 52 53 51 49 48 48 48 48 49 48 46 45 44 43 43 43 43 43 43 43 43 44 43 43 43 43
Wind_Direction
227 228 228 228 228 229 231 232 234 235 234 236 237 237 237 239 241 243 243 243 243 242 240 240 238 231 229 235 239 240 242 244 247 248 249 250 249 248 246 240 237 241 243 242 245 246 244 246 250 252 254 259 263 265 265 264 260 260 264 266 263 262 264 268 269 266 265 264 262 260 259 259 262 265 268 270 272 274 276 279 281 284 285 285 285 285
226 228 228 227 229 231 233 234 235 236 236 237 238 238 238 239 241 242 244 243 243 243 241 240 238 233 228 231 238 242 243 243 247 250 252 253 253 252 252 251 244 242 244 245 245 246 246 245 247 249 251 255 261 265 267 267 266 264 266 268 266 264 263 264 265 265 265 265 264 264 263 263 264 266 269 270 271 272 274 277 278 279 281 283 285 286
226 226 226 226 229 231 232 233 233 235 236 237 237 238 238 239 240 243 244 245 244 243 243 242 238 233 229 229 234 241 245 244 244 247 251 254 257 258 259 259 255 247 244 247 246 243 245 247 248 249 252 256 258 261 266 267 267 268 269 270 269 268 264 262 262 264 265 264 265 267 268 268 267 268 269 270 271 272 272 273 274 275 277 279 283 285
229 227 226 227 228 230 231 231 232 233 234 235 236 237 238 238 239 242 244 246 246 245 244 243 240 236 232 229 231 239 243 243 244 247 251 255 259 264 265 264 261 255 248 247 247 246 247 249 251 251 252 254 256 257 260 261 262 265 268 271 271 271 270 267 265 265 266 266 266 268 268 269 269 269 269 270 271 270 269 269 271 273 275 278 280 282
231 230 229 230 230 230 231 231 232 232 233 234 235 236 237 239 239 241 244 246 246 246 245 245 242 236 233 231 230 236 240 239 242 248 252 256 259 261 264 265 264 259 252 248 249 251 250 250 250 250 251 252 255 256 257 258 258 260 264 268 271 272 273 273 271 270 269 269 270 270 270 270 271 271 270 271 270 269 269 269 269 271 273 276 278 279
230 229 229 231 232 233 233 233 233 234 234 235 236 237 238 240 241 242 244 245 246 246 245 247 244 236 233 234 231 233 238 238 240 245 249 253 256 257 259 262 263 260 256 251 249 251 251 250 249 250 253 255 257 256 255 255 255 257 259 261 264 268 272 274 275 275 275 275 275 275 275 274 274 274 274 273 272 271 271 270 270 271 272 273 275 277
230 228 227 229 231 233 234 234 234 236 237 237 237 239 241 242 243 245 246 246 246 246 246 247 246 239 234 235 234 234 237 239 240 241 244 247 251 255 256 256 260 261 261 259 254 252 253 252 252 252 256 259 259 256 254 254 256 258 258 258 259 262 265 269 273 277 280 280 279 277 277 276 276 277 277 276 274 274 274 274 273 272 271 271 272 273
231 230 228 228 230 232 232 233 234 236 238 238 237 239 241 241 242 244 247 249 248 247 247 246 246 244 236 231 235 239 237 237 241 242 242 243 244 250 253 254 259 262 263 264 262 261 260 259 258 257 258 259 260 259 258 259 261 260 259 258 258 259 261 266 270 275 278 280 279 278 277 277 278 278 278 276 276 277 278 278 278 277 275 273 272 272
233 231 231 231 232 233 232 232 233 236 238 239 238 238 239 240 240 241 245 247 248 248 247 246 247 247 238 229 232 238 238 236 238 243 243 242 244 249 254 257 258 261 262 263 264 264 264 265 266 264 262 261 262 264 264 264 264 262 262 261 262 263 264 267 270 272 274 275 276 276 277 278 279 279 279 278 278 278 279 280 280 280 279 277 275 274
232 230 229 230 233 234 234 234 234 234 236 237 237 237 237 239 239 240 242 244 246 247 246 245 248 248 240 233 232 233 236 238 238 242 243 241 244 247 253 256 254 255 260 263 262 260 262 266 270 271 270 269 267 266 267 267 267 266 265 264 264 264 265 267 269 271 272 273 274 275 276 277 279 281 281 280 280 280 279 280 280 281 281 280 279 278
230 228 226 226 228 230 232 233 234 234 235 236 237 237 237 238 238 239 241 243 246 246 244 244 247 249 242 235 233 232 234 240 240 241 243 241 241 242 245 250 253 255 257 259 261 261 262 264 268 272 274 274 272 270 270 271 271 270 268 268 267 266 266 267 269 270 271 272 273 274 275 276 278 280 281 282 282 281 279 278 278 278 279 279 280 279
228 225 225 225 224 226 228 230 231 232 234 235 237 237 236 238 237 237 238 241 245 244 242 242 244 246 242 234 234 233 232 237 240 240 244 243 242 243 244 247 252 254 252 254 259 262 263 263 264 270 274 278 278 278 278 276 275 275 274 274 273 272 272 271 270 271 271 272 274 275 275 276 276 277 278 281 282 281 279 278 276 276 276 277 278 279
228 227 226 225 224 225 226 227 228 228 230 231 233 234 234 235 236 236 236 238 242 243 242 242 243 243 240 236 238 239 233 232 235 238 244 246 246 246 247 250 250 249 249 252 256 258 262 266 268 272 275 278 282 284 285 285 285 284 284 283 283 283 281 279 276 275 273 273 274 274 274 274 274 275 276 279 280 280 279 279 278 277 276 276 277 278
227 228 228 227 225 225 225 225 226 226 228 229 231 232 233 234 235 235 236 238 240 242 243 244 244 243 240 238 241 244 241 236 231 234 242 246 248 247 247 249 250 251 251 252 254 257 261 266 269 273 275 278 282 286 290 293 295 295 294 292 291 288 286 284 283 281 279 277 276 274 273 273 274 275 276 277 279 280 280 279 279 278 277 277 276 276
227 228 228 229 228 227 226 226 228 230 232 233 233 234 235 236 237 238 239 240 241 243 244 245 246 245 242 241 242 246 248 245 236 233 239 245 249 250 249 247 249 253 255 254 257 259 262 265 269 272 276 279 283 287 291 294 297 298 298 297 295 291 287 286 285 285 284 282 279 276 275 274 274 274 275 277 278 279 279 279 279 279 280 279 278 278
232 231 229 229 228 228 227 226 228 229 230 231 232 233 234 237 239 241 243 244 245 246 246 248 249 247 245 243 243 244 247 249 245 237 239 245 249 252 253 252 251 252 255 257 259 262 264 268 270 272 275 278 281 284 288 292 295 297 298 298 298 295 292 290 288 286 285 282 280 279 278 276 275 274 275 276 277 278 278 278 279 280 281 281 280 279
232 233 231 229 226 224 224 224 225 226 228 228 229 230 232 236 238 240 242 242 243 244 244 246 246 245 245 243 241 242 244 247 249 243 240 246 250 253 255 257 256 255 256 258 259 262 265 267 269 272 274 277 279 282 286 288 291 294 296 297 298 296 295 294 292 289 286 284 282 281 279 278 277 277 276 276 276 276 276 277 278 279 279 280 280 279
230 232 231 229 226 222 222 223 225 227 229 230 230 231 232 234 236 237 239 241 242 243 243 243 244 244 245 243 241 243 244 247 251 249 243 246 251 253 254 255 257 258 258 259 259 261 263 265 268 271 275 278 280 281 283 286 289 292 295 296 297 297 296 295 293 291 290 287 285 282 280 279 278 278 278 277 276 276 275 276 276 277 277 278 278 278
227 231 231 229 226 224 223 224 224 225 228 231 233 234 235 236 237 237 238 241 243 244 244 244 244 244 244 243 244 246 248 250 253 253 251 251 250 251 252 252 254 257 258 260 261 262 263 266 269 273 275 277 278 280 282 285 288 292 294 296 296 296 295 293 292 291 290 287 284 282 280 280 279 278 278 277 276 276 276 276 276 276 277 277 278 278
224 230 233 230 226 224 223 222 223 224 226 229 230 232 234 236 239 240 241 243 244 246 246 246 245 244 243 244 246 248 249 250 251 253 255 256 253 251 253 253 254 255 257 260 262 263 266 268 270 271 272 274 276 280 283 286 289 292 293 294 295 294 294 294 292 290 288 284 282 281 280 280 280 279 278 277 276 276 276 275 275 276 276 277 278 278
220 226 232 233 229 226 224 224 227 229 230 232 233 234 235 235 237 238 239 240 241 243 244 245 245 243 242 244 245 246 248 249 251 253 255 258 257 256 256 257 257 256 257 259 261 262 264 266 267 268 270 273 276 279 283 286 289 291 292 292 293 293 294 294 293 290 287 283 281 280 279 279 279 279 278 278 278 277 277 276 275 275 276 276 278 279
221 227 231 233 231 230 229 229 231 233 235 238 240 241 241 240 239 239 238 238 239 241 243 245 245 242 240 242 244 245 247 249 252 254 255 257 258 257 256 257 257 258 259 259 259 260 261 262 264 267 270 274 277 279 283 286 288 289 290 291 292 293 293 293 292 290 287 284 281 279 277 277 278 279 279 279 279 279 278 277 276 276 276 276 277 278
229 234 234 232 232 233 233 231 231 232 235 237 237 238 240 241 242 242 243 243 244 245 246 248 249 245 242 245 246 247 249 250 252 253 253 254 255 254 253 253 255 257 257 257 256 256 258 260 263 267 270 273 276 280 284 286 287 288 289 290 292 293 293 293 292 291 288 285 282 279 277 276 276 276 277 278 279 280 280 280 279 279 278 277 276 277
232 234 233 230 230 233 233 233 232 231 232 233 232 232 235 238 241 244 246 247 247 247 246 248 249 245 243 246 247 248 249 250 251 251 250 250 251 252 252 251 252 253 253 254 255 256 258 261 264 267 270 274 277 281 284 285 286 287 288 290 291 291 291 290 289 288 286 283 280 278 277 275 275 274 275 276 277 278 279 280 281 281 281 280 279 277
230 230 231 229 228 230 231 231 231 231 231 233 233 234 236 238 240 241 242 244 245 245 244 245 246 242 240 242 243 245 247 248 249 248 247 248 249 251 252 250 248 248 249 252 255 257 260 263 265 268 271 274 277 280 282 283 285 287 288 289 289 289 288 286 283 282 281 279 277 277 276 276 276 276 276 276 276 277 278 278 279 280 281 281 281 280
223 224 226 229 229 230 231 231 232 233 234 236 236 237 239 241 242 243 244 245 246 246 245 246 245 241 241 242 242 244 246 247 249 249 247 247 248 249 250 249 247 247 249 252 255 257 260 262 265 267 270 273 277 279 280 281 283 285 286 287 288 287 286 283 280 279 278 277 276 276 277 277 277 278 278 279 279 279 279 279 279 279 280 281 281 282
220 219 221 227 231 232 234 236 237 237 238 238 239 240 241 243 244 244 244 245 247 247 247 248 246 244 243 243 244 246 247 248 250 251 250 249 248 248 249 250 250 249 250 252 254 256 257 259 262 266 270 274 276 277 278 279 280 281 283 284 284 283 281 279 278 277 277 276 276 277 277 278 278 279 280 281 281 281 282 282 282 283 284 284 285 285
228 225 221 227 232 232 234 237 238 239 240 241 242 243 245 247 247 246 246 247 248 247 247 247 248 246 244 243 246 249 250 250 250 251 252 250 248 247 248 250 252 252 251 249 249 252 254 257 261 266 270 272 273 274 275 276 278 279 280 280 279 277 275 275 274 274 274 274 275 276 277 278 279 280 281 282 283 284 285 286 286 287 288 289 289 289
232 230 227 229 231 231 233 235 238 240 240 240 241 242 244 246 248 250 251 251 250 249 249 249 250 249 246 244 246 249 252 253 252 251 250 248 246 246 247 248 250 251 249 246 245 249 253 258 262 266 268 269 269 270 272 274 276 277 277 276 273 272 272 271 271 272 273 274 275 276 278 279 281 282 284 285 287 288 289 289 290 291 291 291 291 290
235 234 233 234 233 232 234 235 237 239 239 239 239 239 240 243 247 250 250 248 248 250 250 248 247 247 246 244 242 242 245 249 250 248 247 245 245 245 246 247 249 249 246 244 246 249 254 258 262 264 265 266 267 269 270 271 272 272 272 270 270 270 270 270 271 272 274 276 278 280 282 283 285 286 287 288 288 289 290 291 291 292 292 292 291 291
236 236 236 236 235 235 235 236 236 238 240 240 239 239 239 241 243 246 246 244 245 248 248 246 245 245 244 242 241 238 239 244 248 249 248 246 245 244 246 248 248 246 244 244 247 251 256 260 262 262 262 264 266 268 270 270 269 268 266 265 265 266 267 269 272 274 277 280 283 285 287 288 289 290 290 290 290 290 291 291 292 292 292 292 292 292
235 236 239 241 239 236 234 236 236 236 238 240 241 240 240 240 241 243 245 245 246 248 248 246 245 245 243 241 241 241 240 240 244 248 248 246 244 243 244 246 246 244 243 245 248 252 257 261 261 260 261 263 265 267 268 268 268 266 264 263 263 264 267 270 274 278 281 284 287 289 290 291 292 292 293 293 293 292 292 292 292 292 292 292 291 291
236 237 239 243 243 237 234 235 237 238 241 240 237 237 239 239 240 242 244 245 245 247 247 245 243 242 240 238 237 238 238 236 238 242 244 244 243 242 242 243 243 243 244 245 248 253 257 259 258 258 260 262 263 264 265 264 263 261 261 262 263 265 268 272 276 280 283 286 288 289 290 292 292 292 293 292 292 292 292 291 291 290 290 290 289 289
231 233 233 235 240 238 235 236 239 242 242 237 233 235 238 239 241 242 242 241 243 245 246 245 242 237 235 234 231 230 233 234 235 238 241 242 242 242 242 241 242 243 244 245 247 250 254 254 255 257 259 260 261 261 261 259 257 258 259 261 264 267 271 275 279 282 285 287 289 290 290 291 291 291 291 290 290 290 289 289 289 289 289 288 288 288
223 227 226 227 232 235 234 236 241 244 241 235 231 235 237 239 242 243 240 239 241 242 243 244 239 234 234 235 230 228 229 232 235 236 237 239 240 240 241 241 241 242 243 245 245 247 249 250 253 255 256 257 258 258 256 255 255 257 259 262 265 269 273 278 281 284 287 289 290 291 291 291 291 291 291 290 290 290 290 289 289 289 289 288 287 287
222 227 230 228 229 230 231 235 240 243 243 239 236 235 237 239 240 240 238 234 234 238 241 243 239 236 236 235 231 232 233 233 234 233 234 237 237 238 240 241 240 241 242 242 243 243 246 249 251 252 252 253 255 254 252 252 253 256 259 263 267 271 274 278 282 286 288 290 291 292 292 292 292 293 293 292 292 291 291 291 290 289 289 288 287 286
223 228 233 233 233 231 232 235 240 242 242 240 238 235 235 236 237 240 240 234 234 242 247 246 239 233 234 235 235 240 243 239 234 231 234 238 239 238 240 240 239 240 241 241 242 243 245 247 248 249 250 250 250 250 249 250 252 255 259 263 267 270 274 279 283 286 288 290 291 292 292 293 293 293 293 294 293 292 292 292 292 291 290 289 288 288
224 228 232 236 237 236 236 235 238 242 241 239 239 237 235 237 239 244 245 237 232 243 248 243 235 230 232 237 238 241 242 238 233 232 235 240 241 240 239 239 239 240 241 242 243 243 243 245 246 247 248 247 247 247 248 250 252 255 259 262 266 270 275 280 283 286 288 289 290 290 291 291 292 292 293 293 293 293 293 293 292 292 291 291 292 292
224 227 231 235 236 237 238 235 235 240 237 234 237 238 236 239 242 248 250 239 225 234 246 241 235 234 236 242 245 244 242 237 233 232 233 237 241 243 241 238 239 241 241 243 244 243 242 242 243 245 245 245 246 247 249 250 253 256 259 262 267 272 277 280 283 285 285 287 288 290 290 290 291 292 293 293 294 295 294 293 293 292 292 293 294 295
226 227 230 234 235 236 239 236 234 237 231 224 230 234 235 238 241 246 247 233 211 230 246 239 235 241 247 253 253 248 244 240 236 236 237 237 238 242 242 239 238 239 241 243 244 244 242 239 239 242 244 244 246 248 249 251 254 257 260 263 268 272 276 279 281 282 284 286 288 289 289 290 291 292 293 294 295 295 294 293 292 292 292 293 294 295
228 229 230 234 235 236 238 238 236 236 228 218 224 231 234 237 240 241 237 223 214 239 246 239 239 249 256 258 255 247 242 243 243 242 240 237 235 236 239 240 239 239 240 242 243 243 241 239 240 242 244 246 248 249 250 253 255 257 260 264 268 271 275 277 279 281 284 286 288 288 289 291 291 292 293 294 295 294 293 292 291 291 291 292 293 294
228 230 231 232 233 233 235 236 236 234 226 216 221 229 232 236 238 237 232 230 238 246 246 239 237 245 253 255 252 247 243 243 244 242 239 236 232 230 234 238 239 240 240 240 241 240 240 241 242 245 247 249 251 251 252 254 255 257 260 264 267 270 273 275 277 280 283 285 286 288 289 290 291 292 293 294 294 293 292 291 290 290 291 291 292 292
227 229 231 231 231 231 232 233 235 232 225 218 222 228 233 237 240 239 239 242 246 247 246 242 236 238 248 253 251 249 246 244 244 241 239 238 233 227 229 234 237 238 239 239 239 238 239 241 244 247 249 251 251 251 252 254 255 257 261 263 265 268 270 273 276 280 281 283 285 287 288 289 290 291 292 293 293 292 291 290 289 289 289 290 290 290
229 229 230 230 230 231 232 233 234 232 225 221 223 228 235 240 241 241 243 245 245 243 243 242 239 238 244 250 250 248 245 244 243 240 239 239 236 230 228 231 234 236 237 238 239 239 238 241 243 246 248 250 250 251 252 253 255 258 260 262 264 267 269 273 276 278 279 282 284 286 287 287 288 289 291 293 293 292 290 289 288 288 288 289 289 289
235 230 231 232 232 232 233 234 234 229 221 220 222 226 234 239 238 238 241 242 243 242 239 241 243 243 243 246 247 247 245 243 242 240 239 239 238 234 232 230 232 234 236 238 239 239 238 240 242 246 248 250 250 251 252 253 256 258 260 262 264 266 270 273 275 276 279 282 284 285 286 285 286 289 291 293 293 292 290 288 288 288 288 288 289 289
240 234 233 234 234 234 234 232 230 225 219 218 220 224 230 235 235 236 239 240 242 242 239 239 243 245 242 240 241 243 244 243 241 240 238 237 237 237 235 233 232 233 235 238 239 239 239 241 243 246 248 249 251 252 253 254 256 258 260 261 264 267 270 272 273 275 279 282 284 284 283 283 285 288 290 292 292 291 290 289 289 288 289 289 289 290
244 240 238 238 237 237 235 231 228 226 221 216 218 223 228 231 232 235 238 239 239 240 239 239 241 241 240 238 237 239 241 242 242 241 239 237 236 236 236 235 234 233 234 237 239 240 241 243 245 247 248 250 252 254 254 255 256 258 260 262 265 268 270 271 272 275 278 280 282 282 281 281 282 284 287 289 290 291 291 291 290 290 289 289 289 290
247 245 245 243 241 239 236 230 226 224 221 215 217 222 226 229 230 232 235 236 235 235 236 236 237 237 236 236 237 237 237 239 241 242 241 239 237 236 237 237 236 235 234 235 238 241 243 245 246 247 249 251 253 254 254 255 256 258 261 263 265 267 268 269 270 273 276 279 279 278 277 278 279 281 283 285 287 288 289 289 289 289 288 288 288 288
250 249 248 247 245 241 235 229 223 222 220 217 217 220 223 227 230 231 233 235 235 235 235 234 235 235 234 234 235 236 236 236 237 239 241 241 238 236 236 236 236 237 237 236 237 240 242 244 246 247 248 251 253 253 253 255 257 260 262 263 265 267 267 267 268 271 274 276 276 275 275 276 278 279 281 282 284 285 286 286 286 286 286 286 285 285
251 251 250 250 250 243 233 225 222 223 223 220 218 220 223 227 231 233 235 237 237 237 236 235 234 233 232 232 232 233 234 233 232 233 236 238 237 235 234 235 236 237 239 239 239 239 240 243 246 248 250 252 253 253 254 255 258 260 262 263 265 267 267 266 268 270 272 273 273 273 274 275 276 278 279 280 282 283 284 284 285 285 285 284 284 284
252 254 254 253 253 247 234 222 219 224 226 222 221 225 228 233 239 241 242 241 239 237 236 235 234 233 232 231 230 231 232 230 228 228 232 234 234 233 232 234 236 237 238 239 239 239 240 244 246 249 251 252 253 254 255 257 259 260 262 264 266 266 266 266 266 268 269 271 271 271 272 273 275 277 278 280 281 282 282 283 284 284 284 284 284 284
Height
5766 5766 5769 5777 5787 5793 5798 5801 5803 5806 5810 5811 5812 5815 5818 5820 5822 5825 5828 5830 5832 5834 5836 5838 5838 5841 5844 5845 5847 5848 5848 5851 5853 5854 5854 5855 5856 5857 5858 5861 5863 5865 5866 5866 5867 5869 5870 5871 5871 5873 5874 5875 5876 5876 5877 5878 5880 5880 5879 5880 5881 5882 5883 5884 5885 5886 5886 5886 5886 5886 5887 5887 5887 5888 5889 5890 5890 5890 5890 5890 5890 5888 5887 5886 5886 5886
5758 5759 5768 5780 5788 5791 5794 5797 5799 5802 5804 5806 5808 5811 5814 5816 5819 5821 5823 5826 5829 5829 5832 5834 5834 5836 5841 5842 5843 5844 5846 5850 5852 5852 5852 5852 5853 5854 5856 5859 5862 5864 5864 5864 5866 5867 5868 5868 5869 5870 5871 5873 5874 5874 5874 5876 5877 5878 5878 5878 5878 5879 5880 5881 5881 5882 5883 5883 5883 5883 5884 5885 5885 5886 5886 5887 5887 5888 5888 5887 5887 5886 5885 5883 5882 5883
5749 5755 5772 5782 5783 5784 5787 5790 5793 5796 5798 5800 5803 5806 5809 5812 5815 5817 5818 5821 5824 5826 5828 5830 5830 5833 5837 5839 5840 5842 5844 5847 5849 5849 5850 5851 5851 5853 5855 5857 5859 5861 5862 5862 5863 5864 5864 5865 5866 5867 5869 5870 5871 5872 5872 5873 5874 5875 5876 5875 5875 5875 5876 5877 5877 5878 5879 5879 5880 5881 5881 5882 5882 5883 5883 5884 5884 5885 5885 5884 5883 5882 5882 5881 5880 5880
5748 5763 5776 5776 5776 5778 5781 5784 5787 5790 5792 5794 5798 5801 5804 5808 5811 5812 5814 5816 5819 5821 5823 5826 5826 5829 5833 5836 5838 5840 5841 5843 5844 5846 5848 5850 5851 5853 5854 5855 5856 5857 5858 5859 5859 5860 5861 5862 5863 5864 5866 5867 5867 5869 5870 5870 5870 5871 5872 5872 5872 5872 5873 5873 5874 5875 5875 5875 5876 5877 5878 5878 5879 5880 5880 5880 5881 5881 5880 5880 5879 5879 5879 5878 5877 5876
5753 5768 5772 5770 5772 5774 5776 5779 5781 5783 5787 5790 5793 5797 5800 5804 5807 5809 5810 5811 5814 5816 5818 5821 5822 5824 5829 5832 5835 5837 5837 5839 5842 5844 5846 5848 5850 5851 5851 5852 5853 5853 5854 5855 5856 5857 5857 5859 5860 5861 5862 5863 5864 5866 5867 5867 5867 5868 5869 5869 5869 5869 5869 5870 5871 5871 5871 5872 5873 5874 5874 5875 5876 5876 5877 5877 5877 5876 5876 5876 5876 5875 5875 5875 5874 5873
5751 5758 5761 5767 5769 5769 5771 5774 5777 5781 5785 5786 5790 5796 5799 5801 5804 5805 5806 5807 5808 5810 5813 5816 5817 5820 5826 5829 5832 5834 5834 5836 5840 5841 5843 5846 5847 5848 5849 5850 5850 5850 5851 5852 5853 5854 5854 5856 5857 5858 5859 5860 5862 5863 5863 5863 5864 5865 5865 5866 5866 5866 5867 5867 5867 5867 5868 5869 5869 5870 5871 5872 5872 5873 5873 5873 5872 5871 5871 5872 5872 5872 5872 5872 5871 5870
5743 5748 5756 5760 5759 5761 5765 5769 5775 5780 5781 5783 5790 5795 5796 5798 5801 5801 5802 5803 5804 5806 5809 5811 5812 5817 5822 5826 5830 5831 5831 5834 5836 5839 5841 5843 5843 5844 5846 5847 5847 5848 5849 5849 5851 5851 5852 5853 5855 5856 5857 5858 5859 5859 5859 5859 5860 5861 5862 5862 5862 5863 5864 5864 5864 5864 5865 5865 5866 5866 5867 5867 5868 5869 5870 5869 5868 5868 5868 5867 5868 5869 5868 5868 5868 5867
5738 5745 5750 5751 5752 5756 5759 5765 5774 5776 5776 5783 5790 5791 5791 5794 5797 5798 5798 5798 5799 5802 5803 5806 5810 5812 5816 5823 5828 5828 5829 5831 5833 5836 5838 5839 5840 5841 5842 5844 5845 5846 5847 5847 5848 5849 5850 5851 5852 5854 5854 5854 5855 5855 5855 5856 5857 5858 5858 5858 5859 5859 5860 5861 5861 5861 5862 5862 5862 5862 5862 5863 5864 5864 5865 5864 5864 5864 5864 5864 5864 5864 5864 5864 5864 5863
5739 5741 5745 5750 5749 5750 5757 5766 5771 5771 5774 5780 5784 5785 5787 5789 5791 5793 5793 5792 5795 5795 5797 5803 5807 5807 5809 5817 5824 5825 5825 5828 5831 5834 5834 5835 5837 5838 5839 5841 5843 5843 5844 5845 5846 5847 5847 5847 5848 5850 5851 5851 5852 5852 5852 5853 5853 5854 5854 5855 5856 5856 5857 5857 5857 5858 5858 5858 5858 5858 5859 5859 5860 5860 5859 5859 5860 5860 5860 5860 5860 5860 5860 5859 5859 5858
5730 5734 5743 5745 5741 5747 5759 5763 5762 5766 5770 5772 5776 5780 5782 5783 5786 5788 5786 5788 5790 5788 5793 5800 5802 5802 5804 5809 5817 5821 5822 5825 5830 5831 5831 5833 5834 5836 5837 5837 5839 5840 5841 5842 5843 5844 5844 5844 5845 5845 5847 5848 5849 5849 5849 5849 5850 5850 5851 5851 5852 5853 5853 5853 5853 5854 5854 5854 5854 5854 5855 5855 5855 5855 5855 5855 5855 5856 5856 5856 5855 5855 5854 5853 5853 5853
5723 5730 5732 5728 5733 5746 5754 5753 5756 5762 5763 5764 5769 5774 5777 5778 5781 5782 5782 5785 5784 5782 5790 5796 5798 5799 5799 5803 5810 5817 5821 5824 5826 5827 5828 5830 5832 5833 5834 5834 5835 5837 5838 5838 5839 5840 5841 5842 5842 5842 5843 5844 5845 5845 5846 5846 5847 5847 5847 5847 5848 5849 5849 5849 5850 5850 5850 5849 5850 5850 5851 5851 5851 5850 5850 5850 5851 5851 5850 5850 5850 5849 5849 5848 5847 5847
5717 5719 5717 5722 5734 5741 5742 5744 5750 5754 5755 5759 5764 5768 5772 5773 5775 5777 5778 5780 5777 5777 5786 5791 5792 5792 5793 5799 5806 5814 5821 5822 5823 5824 5825 5827 5828 5829 5830 5831 5832 5833 5834 5835 5835 5836 5837 5838 5840 5840 5841 5841 5841 5842 5843 5843 5844 5843 5844 5844 5844 5845 5845 5845 5845 5845 5845 5845 5845 5846 5846 5846 5846 5845 5845 5845 5845 5845 5844 5844 5844 5844 5843 5843 5842 5842
5710 5711 5715 5724 5729 5730 5732 5735 5739 5742 5746 5752 5756 5760 5764 5765 5767 5769 5770 5773 5773 5776 5782 5784 5784 5784 5790 5799 5804 5808 5817 5821 5821 5821 5821 5823 5824 5826 5827 5827 5829 5829 5830 5831 5831 5832 5833 5834 5836 5837 5838 5839 5839 5839 5839 5840 5840 5840 5841 5841 5841 5841 5841 5841 5841 5841 5842 5841 5842 5842 5841 5841 5840 5840 5840 5840 5839 5839 5839 5838 5838 5838 5838 5837 5837 5837
5705 5707 5711 5715 5716 5719 5723 5725 5728 5733 5740 5744 5749 5753 5755 5757 5757 5757 5761 5765 5768 5772 5776 5776 5775 5779 5789 5799 5801 5803 5809 5816 5819 5818 5818 5820 5820 5821 5823 5823 5824 5825 5826 5828 5828 5829 5830 5831 5832 5833 5834 5835 5835 5836 5836 5836 5836 5837 5837 5837 5838 5838 5838 5838 5838 5838 5838 5838 5838 5837 5837 5836 5835 5835 5835 5834 5834 5834 5834 5833 5833 5833 5833 5832 5832 5831
5699 5700 5702 5707 5711 5715 5719 5723 5729 5736 5740 5743 5747 5750 5749 5748 5748 5752 5756 5760 5765 5770 5771 5768 5769 5777 5789 5796 5798 5800 5802 5808 5814 5816 5815 5816 5816 5817 5819 5820 5821 5822 5823 5824 5825 5826 5827 5827 5828 5829 5830 5830 5831 5831 5832 5832 5833 5833 5834 5834 5834 5834 5834 5834 5834 5834 5835 5834 5834 5833 5833 5832 5831 5831 5830 5829 5829 5829 5829 5828 5828 5828 5828 5827 5827 5826
5694 5695 5700 5706 5710 5713 5717 5724 5728 5731 5732 5736 5741 5741 5741 5743 5747 5752 5755 5759 5765 5766 5764 5763 5768 5778 5787 5791 5793 5795 5796 5799 5806 5812 5812 5811 5812 5813 5814 5816 5817 5818 5819 5820 5822 5822 5823 5824 5825 5825 5826 5826 5827 5827 5828 5828 5829 5829 5830 5830 5831 5831 5830 5830 5831 5831 5831 5830 5830 5829 5829 5828 5827 5826 5826 5825 5825 5824 5824 5823 5823 5823 5823 5822 5822 5821
5691 5692 5697 5701 5704 5708 5713 5718 5720 5721 5723 5729 5730 5729 5734 5740 5744 5747 5749 5752 5756 5755 5755 5759 5765 5774 5779 5781 5786 5789 5791 5793 5797 5806 5809 5807 5809 5810 5810 5811 5812 5814 5816 5816 5818 5819 5819 5820 5820 5821 5821 5822 5823 5823 5824 5825 5825 5825 5826 5826 5826 5826 5826 5826 5826 5826 5826 5826 5825 5825 5825 5824 5823 5823 5822 5822 5821 5820 5819 5819 5819 5818 5818 5817 5816 5816
5688 5689 5692 5696 5700 5704 5708 5711 5714 5716 5718 5721 5722 5727 5735 5735 5735 5739 5741 5744 5746 5746 5750 5756 5762 5769 5771 5774 5781 5785 5788 5790 5791 5799 5805 5805 5805 5806 5807 5807 5807 5809 5811 5812 5813 5814 5815 5816 5816 5817 5817 5817 5818 5819 5820 5821 5821 5822 5822 5822 5822 5822 5822 5821 5821 5821 5821 5821 5821 5821 5820 5820 5819 5819 5818 5817 5816 5815 5815 5814 5814 5813 5813 5812 5811 5810
5683 5686 5688 5691 5695 5699 5702 5704 5705 5707 5709 5713 5720 5727 5729 5726 5727 5732 5735 5738 5741 5742 5747 5754 5758 5761 5765 5772 5779 5782 5785 5787 5787 5792 5798 5800 5801 5801 5802 5802 5803 5805 5806 5807 5808 5809 5810 5811 5811 5812 5812 5813 5814 5814 5815 5816 5817 5817 5817 5818 5818 5817 5817 5817 5816 5816 5816 5816 5816 5816 5815 5815 5814 5814 5813 5812 5811 5810 5810 5809 5809 5808 5807 5807 5806 5805
5679 5682 5683 5686 5690 5693 5695 5694 5693 5698 5702 5706 5714 5718 5719 5721 5723 5726 5731 5736 5738 5739 5743 5749 5749 5754 5763 5771 5775 5777 5780 5781 5782 5788 5793 5794 5795 5797 5797 5798 5800 5801 5802 5803 5804 5804 5805 5806 5806 5807 5807 5808 5809 5810 5811 5811 5812 5813 5813 5813 5813 5812 5812 5812 5811 5811 5811 5811 5811 5810 5810 5810 5809 5808 5807 5807 5806 5805 5804 5804 5803 5802 5802 5801 5800 5800
5674 5677 5679 5682 5684 5684 5684 5685 5689 5696 5697 5699 5706 5709 5712 5715 5716 5720 5725 5728 5729 5731 5735 5739 5740 5749 5762 5767 5768 5771 5773 5774 5778 5784 5788 5788 5788 5791 5792 5793 5795 5796 5797 5798 5799 5799 5800 5800 5801 5802 5802 5803 5804 5805 5806 5806 5807 5808 5808 5808 5808 5807 5807 5806 5806 5806 5806 5806 5805 5805 5805 5804 5804 5803 5802 5801 5800 5800 5799 5798 5797 5796 5795 5795 5794 5794
5667 5672 5676 5677 5677 5677 5680 5684 5690 5693 5693 5698 5703 5705 5708 5710 5709 5713 5715 5717 5722 5725 5730 5733 5732 5743 5757 5758 5761 5766 5768 5771 5775 5780 5784 5783 5783 5785 5787 5788 5789 5790 5791 5791 5792 5793 5794 5795 5796 5797 5798 5798 5799 5800 5801 5802 5802 5802 5802 5802 5802 5802 5801 5801 5801 5800 5800 5800 5800 5800 5799 5799 5798 5797 5797 5796 5795 5794 5793 5792 5791 5790 5789 5789 5788 5787
5664 5667 5671 5672 5672 5674 5676 5679 5684 5686 5690 5695 5696 5698 5703 5701 5701 5707 5709 5716 5723 5724 5729 5730 5726 5738 5752 5754 5758 5763 5764 5768 5771 5774 5778 5778 5778 5779 5781 5783 5784 5784 5784 5784 5786 5787 5789 5790 5791 5791 5793 5794 5795 5796 5796 5797 5797 5797 5797 5797 5797 5797 5796 5796 5796 5795 5795 5795 5794 5794 5793 5793 5792 5791 5791 5790 5789 5788 5788 5787 5786 5785 5784 5783 5782 5781
5656 5659 5663 5667 5669 5671 5672 5674 5678 5681 5683 5685 5685 5689 5694 5693 5698 5705 5709 5715 5717 5717 5725 5723 5719 5734 5748 5750 5754 5757 5758 5762 5763 5767 5771 5772 5773 5774 5774 5777 5777 5777 5778 5779 5781 5783 5784 5785 5785 5786 5787 5788 5790 5791 5791 5791 5791 5791 5792 5792 5792 5791 5791 5791 5790 5790 5789 5789 5788 5788 5787 5787 5786 5785 5785 5784 5783 5782 5782 5781 5780 5779 5779 5778 5776 5775
5649 5652 5656 5660 5661 5663 5664 5666 5669 5671 5673 5676 5680 5685 5689 5691 5696 5700 5703 5707 5705 5709 5717 5713 5714 5732 5742 5743 5748 5749 5751 5754 5754 5758 5764 5766 5768 5769 5769 5770 5770 5770 5772 5774 5776 5778 5778 5779 5780 5780 5782 5783 5785 5786 5786 5786 5786 5786 5786 5786 5786 5786 5785 5785 5785 5784 5784 5783 5782 5782 5781 5781 5780 5779 5779 5778 5777 5777 5776 5775 5774 5773 5772 5771 5770 5769
5642 5644 5648 5651 5652 5654 5657 5659 5663 5667 5671 5674 5678 5682 5686 5689 5692 5694 5698 5697 5695 5705 5710 5705 5713 5731 5735 5737 5743 5743 5744 5746 5746 5751 5758 5761 5763 5763 5762 5762 5763 5765 5767 5769 5771 5772 5772 5774 5774 5775 5777 5778 5780 5780 5780 5781 5780 5780 5780 5780 5780 5780 5779 5779 5778 5778 5777 5777 5776 5776 5775 5775 5774 5774 5773 5772 5772 5771 5770 5769 5768 5767 5766 5765 5764 5762
5633 5634 5640 5643 5646 5651 5656 5659 5662 5666 5668 5670 5674 5679 5683 5685 5686 5688 5688 5686 5692 5702 5701 5699 5713 5725 5728 5733 5737 5735 5737 5739 5740 5745 5751 5756 5758 5756 5755 5755 5756 5759 5762 5763 5764 5764 5765 5767 5768 5770 5772 5773 5774 5774 5774 5774 5774 5775 5775 5775 5775 5774 5773 5773 5772 5772 5771 5771 5771 5770 5769 5769 5768 5768 5767 5766 5766 5765 5764 5763 5762 5761 5760 5758 5757 5756
5625 5628 5634 5638 5642 5647 5651 5654 5656 5658 5661 5665 5670 5675 5677 5679 5679 5678 5677 5683 5692 5693 5689 5697 5711 5714 5720 5730 5731 5728 5729 5732 5735 5740 5744 5748 5749 5749 5749 5750 5750 5752 5754 5755 5755 5755 5758 5761 5763 5766 5767 5767 5768 5768 5768 5768 5768 5769 5769 5769 5769 5768 5768 5767 5767 5766 5766 5765 5765 5764 5764 5763 5763 5762 5761 5760 5759 5758 5757 5757 5755 5754 5753 5752 5751 5749
5619 5623 5630 5634 5638 5641 5644 5647 5649 5651 5655 5659 5663 5666 5669 5670 5670 5670 5674 5683 5687 5682 5685 5700 5707 5704 5712 5725 5726 5724 5724 5724 5729 5734 5735 5738 5740 5741 5742 5743 5742 5743 5746 5746 5747 5749 5753 5756 5759 5761 5761 5761 5761 5761 5762 5763 5763 5763 5763 5763 5763 5762 5762 5762 5761 5760 5760 5760 5759 5759 5758 5758 5757 5756 5756 5754 5754 5752 5751 5750 5749 5748 5747 5745 5744 5743
5614 5620 5625 5628 5632 5635 5637 5640 5643 5645 5648 5651 5653 5658 5662 5663 5664 5665 5671 5677 5678 5676 5683 5696 5697 5695 5707 5719 5719 5718 5718 5717 5720 5723 5725 5729 5732 5732 5734 5734 5733 5736 5738 5738 5740 5744 5748 5751 5753 5754 5754 5754 5754 5755 5756 5757 5757 5758 5757 5757 5757 5757 5757 5756 5755 5755 5754 5754 5754 5754 5753 5753 5752 5751 5750 5749 5748 5747 5745 5744 5743 5742 5740 5739 5737 5736
5608 5614 5619 5622 5625 5626 5630 5634 5636 5638 5641 5643 5646 5651 5654 5656 5658 5660 5664 5670 5671 5671 5680 5689 5687 5688 5702 5712 5709 5709 5713 5713 5713 5715 5719 5722 5723 5725 5726 5726 5727 5730 5731 5732 5735 5739 5741 5744 5746 5746 5747 5747 5748 5749 5750 5751 5752 5752 5752 5752 5752 5751 5751 5750 5750 5750 5749 5749 5749 5748 5748 5747 5747 5746 5745 5744 5743 5741 5740 5739 5738 5736 5735 5733 5732 5730
5602 5606 5612 5616 5615 5618 5626 5630 5630 5633 5636 5635 5637 5642 5646 5649 5652 5656 5661 5666 5668 5670 5677 5680 5678 5684 5700 5706 5702 5704 5710 5710 5709 5710 5711 5713 5715 5718 5720 5720 5721 5724 5725 5726 5729 5732 5735 5737 5738 5738 5740 5741 5743 5744 5745 5745 5746 5746 5746 5746 5746 5746 5746 5745 5745 5745 5744 5744 5743 5743 5742 5741 5741 5740 5739 5738 5737 5736 5735 5733 5732 5730 5729 5727 5725 5723
5596 5600 5606 5607 5606 5614 5623 5624 5626 5629 5623 5619 5627 5638 5643 5647 5651 5655 5658 5662 5664 5667 5669 5670 5674 5687 5696 5696 5695 5699 5701 5701 5702 5702 5702 5704 5708 5710 5712 5713 5716 5718 5719 5720 5724 5727 5728 5730 5731 5732 5734 5736 5737 5739 5739 5740 5740 5740 5740 5740 5740 5740 5740 5740 5739 5739 5738 5738 5738 5737 5736 5735 5735 5734 5733 5733 5731 5730 5729 5728 5726 5724 5722 5721 5719 5717
5590 5595 5599 5600 5601 5609 5615 5619 5621 5614 5604 5613 5632 5640 5641 5643 5646 5648 5651 5656 5659 5660 5662 5666 5674 5684 5687 5685 5688 5691 5691 5693 5695 5693 5695 5698 5700 5701 5703 5706 5709 5712 5713 5715 5718 5720 5721 5722 5724 5726 5729 5730 5731 5733 5733 5734 5735 5734 5735 5735 5735 5735 5734 5734 5733 5733 5733 5733 5732 5731 5731 5730 5729 5729 5728 5727 5726 5724 5723 5721 5720 5718 5716 5714 5712 5710
5584 5589 5591 5593 5595 5600 5606 5610 5604 5595 5600 5621 5632 5632 5633 5638 5640 5641 5644 5648 5651 5653 5658 5663 5671 5677 5679 5679 5682 5684 5685 5687 5687 5687 5690 5691 5691 5693 5695 5699 5703 5705 5707 5709 5712 5713 5714 5716 5719 5721 5723 5724 5725 5727 5728 5728 5729 5729 5729 5729 5728 5728 5728 5728 5728 5727 5727 5727 5726 5726 5725 5725 5724 5723 5722 5721 5720 5718 5716 5715 5713 5711 5710 5708 5706 5704
5579 5582 5584 5586 5588 5591 5596 5596 5591 5592 5607 5618 5619 5620 5627 5631 5633 5635 5636 5641 5647 5650 5655 5659 5665 5672 5673 5674 5679 5680 5680 5680 5680 5681 5683 5682 5684 5688 5690 5693 5698 5699 5701 5703 5704 5706 5708 5710 5713 5715 5717 5718 5720 5721 5722 5722 5722 5723 5723 5723 5722 5722 5722 5722 5722 5722 5721 5721 5721 5720 5720 5719 5718 5717 5716 5714 5713 5711 5709 5708 5706 5704 5703 5701 5699 5697
5572 5575 5578 5579 5581 5584 5587 5587 5589 5593 5600 5604 5609 5616 5623 5627 5632 5634 5634 5639 5645 5647 5649 5653 5660 5666 5669 5672 5675 5674 5672 5672 5674 5677 5679 5678 5681 5685 5686 5690 5694 5694 5694 5696 5697 5701 5703 5705 5707 5709 5711 5713 5714 5715 5715 5716 5716 5717 5717 5717 5717 5716 5716 5716 5716 5716 5715 5715 5715 5714 5714 5713 5712 5710 5709 5708 5706 5704 5703 5701 5699 5697 5696 5694 5692 5691
5566 5569 5572 5573 5575 5579 5581 5582 5584 5584 5587 5599 5610 5618 5624 5628 5630 5628 5625 5627 5634 5639 5644 5650 5657 5662 5666 5668 5668 5666 5665 5665 5669 5675 5677 5676 5677 5680 5682 5686 5687 5686 5686 5688 5691 5695 5697 5699 5701 5703 5705 5707 5707 5708 5708 5709 5710 5711 5711 5710 5710 5710 5710 5710 5709 5709 5709 5709 5709 5709 5708 5707 5705 5704 5702 5701 5699 5698 5696 5694 5693 5691 5690 5688 5686 5685
5559 5562 5565 5565 5567 5572 5574 5575 5575 5574 5582 5599 5610 5616 5619 5618 5617 5617 5614 5615 5627 5638 5643 5649 5655 5659 5662 5663 5661 5659 5659 5659 5665 5673 5675 5674 5675 5676 5677 5679 5679 5677 5679 5681 5685 5688 5691 5693 5695 5696 5698 5700 5700 5701 5702 5703 5703 5704 5704 5704 5704 5703 5704 5703 5703 5703 5703 5703 5703 5703 5701 5700 5698 5697 5695 5694 5692 5691 5690 5688 5686 5685 5684 5682 5681 5679
5551 5555 5557 5556 5559 5566 5569 5569 5568 5569 5580 5596 5606 5607 5606 5604 5606 5606 5603 5612 5631 5640 5641 5647 5653 5655 5656 5655 5652 5652 5654 5657 5664 5669 5669 5670 5673 5671 5670 5671 5670 5671 5673 5675 5678 5681 5684 5686 5688 5690 5692 5693 5694 5695 5695 5696 5697 5697 5697 5697 5697 5697 5698 5698 5698 5697 5697 5697 5697 5696 5695 5693 5691 5690 5689 5687 5686 5684 5683 5682 5680 5679 5678 5676 5675 5674
5543 5547 5548 5549 5555 5561 5562 5562 5563 5567 5580 5594 5600 5599 5596 5594 5591 5591 5601 5622 5635 5636 5638 5644 5648 5648 5648 5646 5645 5647 5651 5655 5657 5657 5657 5661 5665 5665 5664 5664 5664 5666 5669 5670 5673 5675 5676 5679 5682 5684 5685 5686 5687 5688 5689 5689 5690 5690 5690 5691 5692 5692 5692 5692 5692 5691 5691 5690 5690 5689 5688 5686 5685 5684 5683 5681 5680 5678 5677 5676 5675 5673 5672 5670 5669 5668
5536 5539 5540 5543 5549 5553 5556 5558 5558 5563 5578 5592 5595 5590 5585 5579 5579 5591 5613 5628 5627 5627 5634 5639 5640 5640 5639 5638 5639 5643 5646 5648 5647 5647 5648 5651 5655 5658 5658 5658 5658 5661 5663 5666 5667 5668 5669 5673 5676 5677 5679 5680 5681 5681 5682 5683 5683 5683 5685 5686 5686 5686 5686 5686 5686 5686 5685 5684 5683 5682 5681 5680 5679 5678 5676 5675 5674 5673 5671 5670 5669 5668 5667 5665 5664 5663
5531 5532 5532 5537 5543 5547 5549 5548 5547 5560 5581 5591 5588 5582 5575 5573 5585 5603 5615 5617 5618 5622 5626 5627 5631 5633 5631 5632 5635 5637 5639 5639 5638 5641 5642 5642 5646 5651 5651 5651 5653 5655 5658 5660 5660 5662 5665 5668 5669 5671 5673 5674 5674 5674 5675 5676 5676 5678 5679 5679 5680 5680 5680 5680 5680 5680 5679 5678 5677 5676 5675 5674 5673 5672 5671 5670 5669 5667 5666 5665 5664 5663 5661 5660 5658 5657
5521 5523 5525 5531 5536 5538 5537 5537 5545 5566 5584 5584 5580 5577 5574 5576 5589 5599 5601 5604 5610 5614 5613 5616 5622 5624 5624 5628 5630 5630 5632 5632 5631 5635 5636 5635 5639 5643 5645 5646 5649 5650 5653 5654 5654 5657 5660 5662 5664 5666 5667 5667 5667 5668 5669 5669 5671 5672 5673 5673 5673 5674 5674 5674 5674 5673 5673 5672 5671 5670 5669 5668 5667 5666 5665 5664 5663 5662 5661 5660 5659 5657 5656 5655 5653 5652
5512 5519 5523 5526 5528 5528 5529 5535 5550 5566 5572 5570 5571 5573 5569 5570 5579 5586 5591 5597 5601 5604 5607 5611 5613 5615 5618 5621 5622 5623 5625 5625 5626 5630 5631 5630 5633 5636 5639 5642 5644 5645 5647 5648 5649 5652 5655 5656 5659 5661 5661 5661 5661 5662 5663 5664 5665 5666 5666 5667 5667 5668 5668 5668 5668 5667 5667 5666 5665 5664 5663 5663 5662 5661 5660 5659 5658 5657 5656 5655 5654 5652 5651 5650 5649 5647
5507 5514 5516 5516 5517 5518 5520 5529 5544 5554 5558 5563 5568 5567 5562 5564 5573 5581 5586 5592 5595 5598 5601 5603 5604 5607 5610 5612 5615 5618 5619 5620 5622 5624 5625 5626 5628 5629 5632 5635 5637 5640 5642 5643 5645 5647 5649 5651 5654 5654 5654 5655 5656 5656 5657 5658 5659 5660 5660 5661 5661 5661 5662 5662 5661 5661 5660 5660 5659 5658 5657 5657 5656 5655 5654 5653 5652 5651 5650 5649 5648 5647 5646 5645 5644 5642
5502 5506 5506 5505 5506 5509 5511 5521 5537 5549 5557 5563 5564 5560 5558 5562 5571 5578 5582 5587 5591 5591 5591 5593 5595 5598 5599 5603 5608 5612 5613 5614 5616 5617 5619 5621 5622 5623 5625 5628 5631 5635 5637 5638 5640 5642 5643 5646 5647 5648 5648 5649 5650 5651 5652 5653 5654 5654 5654 5655 5655 5655 5655 5655 5655 5654 5654 5653 5652 5652 5651 5650 5649 5648 5648 5647 5646 5645 5645 5644 5643 5642 5641 5640 5639 5637
5497 5499 5498 5497 5498 5500 5504 5516 5532 5544 5550 5552 5550 5550 5555 5561 5568 5573 5575 5578 5581 5580 5580 5583 5585 5587 5592 5595 5598 5603 5606 5608 5610 5611 5613 5615 5616 5618 5620 5621 5625 5628 5630 5632 5635 5636 5638 5639 5640 5641 5642 5643 5644 5645 5646 5647 5648 5648 5648 5649 5649 5649 5649 5649 5648 5648 5647 5647 5646 5645 5644 5643 5642 5642 5641 5640 5640 5639 5639 5638 5637 5636 5635 5634 5632 5631
5491 5489 5489 5490 5491 5490 5496 5511 5526 5534 5537 5541 5545 5551 5557 5561 5564 5567 5568 5569 5571 5572 5574 5576 5577 5581 5585 5587 5589 5594 5598 5601 5603 5605 5606 5608 5610 5612 5613 5615 5618 5621 5624 5627 5629 5629 5630 5631 5632 5634 5635 5636 5637 5638 5639 5640 5641 5641 5642 5642 5642 5643 5643 5642 5641 5641 5640 5640 5640 5639 5638 5637 5636 5635 5634 5634 5633 5633 5632 5631 5630 5629 5628 5627 5626 5625
5481 5479 5482 5484 5483 5482 5490 5508 5524 5530 5535 5544 5551 5553 5555 5556 5557 5559 5560 5561 5563 5566 5568 5570 5572 5574 5577 5579 5582 5586 5589 5592 5595 5596 5598 5601 5604 5605 5607 5609 5611 5614 5617 5619 5620 5621 5622 5623 5624 5626 5628 5629 5631 5632 5632 5634 5634 5635 5635 5636 5636 5636 5636 5635 5635 5634 5634 5634 5633 5632 5632 5631 5629 5628 5628 5627 5626 5626 5625 5624 5624 5623 5622 5621 5620 5619
5473 5474 5478 5478 5476 5479 5490 5509 5524 5528 5533 5543 5547 5544 5545 5547 5547 5548 5549 5551 5554 5557 5559 5562 5564 5567 5570 5572 5574 5577 5579 5582 5584 5586 5589 5593 5595 5598 5601 5602 5604 5607 5609 5610 5611 5612 5614 5616 5617 5619 5620 5622 5623 5624 5625 5626 5627 5627 5628 5629 5629 5629 5628 5628 5628 5627 5627 5627 5626 5626 5625 5624 5622 5622 5621 5620 5620 5619 5618 5618 5617 5617 5616 5615 5614 5613